This is the latest recevied weather packets stored in our database for station/object KB8TTR. If no packets are shown the sender has not sent any weather packets the latest 10 day(s).
| Time | Temp. | Humidity | Pressure | Rain* | Wind** | Luminosity | Snow |
|---|---|---|---|---|---|---|---|
| 1788628391 | 23.89° C | 87% | 1016.2 hPa | 0 mm | - | 207 W/m² | - |
| 1788628087 | 23.89° C | 88% | 1016 hPa | 0 mm | - | 222 W/m² | - |
| 1788627803 | 23.89° C | 88% | 1015.9 hPa | 0 mm | - | 171 W/m² | - |
| 1788627482 | 24.44° C | 87% | 1016.3 hPa | 0 mm | - | 203 W/m² | - |
| 1788627178 | 24.44° C | 88% | 1016.2 hPa | 0 mm | - | 194 W/m² | - |
| 1788626877 | 24.44° C | 87% | 1016 hPa | 0 mm | - | 212 W/m² | - |
| 1788626572 | 24.44° C | 87% | 1015.7 hPa | 0 mm | - | 132 W/m² | - |
| 1788626268 | 25° C | 87% | 1015.8 hPa | 0 mm | - | 188 W/m² | - |
| 1788625973 | 25° C | 87% | 1015.9 hPa | 0 mm | - | 280 W/m² | - |
| 1788625660 | 25° C | 85% | 1015.8 hPa | 0 mm | - | 318 W/m² | - |
| 1788625359 | 25° C | 85% | 1015.9 hPa | 0 mm | - | 220 W/m² | - |
| 1788625054 | 25.56° C | 84% | 1015.7 hPa | 0 mm | - | 245 W/m² | - |
| 1788624753 | 25.56° C | 85% | 1015.8 hPa | 0 mm | - | 350 W/m² | - |
| 1788624452 | 25° C | 87% | 1015.7 hPa | 0 mm | - | 443 W/m² | - |
| 1788624151 | 25° C | 87% | 1015.7 hPa | 0 mm | - | 294 W/m² | - |
| 1788623846 | 25° C | 86% | 1015.9 hPa | 0 mm | - | 256 W/m² | - |
| 1788623545 | 25.56° C | 85% | 1015.9 hPa | 0 mm | - | 281 W/m² | - |
| 1788623239 | 25.56° C | 86% | 1015.8 hPa | 0 mm | - | 512 W/m² | - |
| 1788622935 | 25.56° C | 85% | 1015.6 hPa | 0 mm | - | 739 W/m² | - |
| 1788622631 | 25.56° C | 87% | 1015.6 hPa | 0 mm | - | 584 W/m² | - |
| 1788622326 | 25° C | 88% | 1015.6 hPa | 0 mm | - | 448 W/m² | - |
| 1788622021 | 24.44° C | 90% | 1015.5 hPa | 0 mm | - | 347 W/m² | - |
| 1788621715 | 24.44° C | 91% | 1015.8 hPa | 0 mm | - | 360 W/m² | - |
| 1788621410 | 23.89° C | 92% | 1015.6 hPa | 0 mm | - | 188 W/m² | - |
| 1788621106 | 23.89° C | 93% | 1015.7 hPa | 0 mm | - | 173 W/m² | - |
* Rain latest hour (hover to see other rain measurements)
** Current wind speed in m/s (hover to see current wind gust speed)